Weather History for Monroe, NC

Change the Weather History Date:

Tuesday, January 14, 2014

  Actual Average (KCLT) Record (KCLT)
Temperature  
Mean Temperature 48 °F 40 °F  
Max Temperature 57 °F 50 °F 77 °F (1907)
Min Temperature 39 °F 29 °F 7 °F (1912)
Degree Days  
Heating Degree Days 17 25  
Month to date heating degree days 350  
Since 1 July heating degree days 1687  
Cooling Degree Days 0 0  
Month to date cooling degree days 0  
Year to date cooling degree days 0  
Moisture  
Dew Point 45 °F    
Average Humidity 89    
Maximum Humidity 100    
Minimum Humidity 62    
Precipitation  
Precipitation 0.00 in 0.11 in 1.45 in (1961)
Month to date precipitation 1.58  
Year to date precipitation 1.58  
Snow  
Snow 0.00 in 0.10 in 1.90 in (1982)
Month to date snowfall 0.9  
Since 1 July snowfall 1.3  
Snow Depth -    
Sea Level Pressure  
Sea Level Pressure 29.88 in    
Wind  
Wind Speed 2 mph (West)    
Max Wind Speed 9 mph    
Max Gust Speed -    
Visibility 7 miles    
Events Rain    
T = Trace of Precipitation, MM = Missing Value Source: NWS Daily Summary

Daily Weather History Graph

Daily Weather History Graph

Search for Another Location

Airport:

Trip Planner

Search our weather history database for the weather conditions in past years. The results will help you decide how hot, cold, wet, or windy it might be!

Date:

Astronomy

Jan. 14, 2014 Rise Set
Actual Time 7:30 AM EST 5:33 PM EST
Civil Twilight 7:02 AM EST 6:00 PM EST
Nautical Twilight 6:31 AM EST 6:31 PM EST
Astronomical Twilight 6:01 AM EST 7:02 PM EST
Moon 4:36 PM EST (1/14) 6:04 AM EST (1/14)
Length of Visible Light 10h 58m
Length of Day
10h 02m
Waxing Gibbous, 98% of the Moon is Illuminated
Jan 14
Waxing Gibbous
Jan 15
Full
Jan 24
Last Quarter
Jan 30
New
Feb 6
First Quarter

Hourly Weather History & Observations

Time (EST) Temp. Windchill Dew Point Humidity Pressure Visibility Wind Dir Wind Speed Gust Speed Precip Events Conditions
12:28 AM 48.2 °F - 46.4 °F 93% 29.92 in 10.0 mi WNW 3.5 mph - N/A Rain Light Rain
12:36 AM 48.2 °F - 46.4 °F 93% 29.92 in 10.0 mi Calm Calm - N/A   Overcast
12:53 AM 48.0 °F - 45.0 °F 89% 29.94 in 10.0 mi NW 3.5 mph - N/A   Mostly Cloudy
1:05 AM 46.4 °F 45.2 °F 44.6 °F 93% 29.90 in 10.0 mi NNW 3.5 mph - N/A   Overcast
1:53 AM 46.9 °F - 45.0 °F 93% 29.93 in 10.0 mi Calm Calm - N/A   Mostly Cloudy
2:53 AM 46.9 °F - 45.0 °F 93% 29.91 in 10.0 mi Calm Calm - N/A   Overcast
3:05 AM 46.4 °F - 44.6 °F 93% 29.87 in 10.0 mi Calm Calm - N/A   Overcast
3:53 AM 46.9 °F - 45.0 °F 93% 29.89 in 5.0 mi Calm Calm - N/A Rain Light Rain
3:58 AM 46.4 °F - 44.6 °F 93% 29.85 in 2.5 mi Calm Calm - N/A Rain Light Rain
4:09 AM 46.4 °F - 44.6 °F 93% 29.85 in 3.0 mi Calm Calm - N/A Rain Light Rain
4:50 AM 46.4 °F - 44.6 °F 93% 29.82 in 3.0 mi Calm Calm - N/A   Overcast
4:53 AM 46.0 °F - 45.0 °F 96% 29.86 in 3.0 mi Calm Calm - N/A   Overcast
5:53 AM 46.9 °F - 45.0 °F 93% 29.85 in 7.0 mi Calm Calm - N/A   Overcast
6:39 AM 46.4 °F - 46.4 °F 100% 29.81 in 3.0 mi Calm Calm - N/A Rain Light Rain
6:53 AM 46.9 °F - 45.0 °F 93% 29.84 in 2.0 mi Calm Calm - N/A Rain Light Rain
7:53 AM 46.9 °F - 46.0 °F 97% 29.85 in 2.5 mi Calm Calm - N/A Rain Light Rain
8:18 AM 46.4 °F - 46.4 °F 100% 29.81 in 1.5 mi Calm Calm - N/A Rain Light Rain
8:43 AM 46.4 °F - 44.6 °F 93% 29.81 in 2.5 mi Calm Calm - N/A   Overcast
8:50 AM 46.4 °F - 46.4 °F 100% 29.81 in 3.0 mi Calm Calm - N/A   Overcast
8:53 AM 46.9 °F - 46.0 °F 97% 29.84 in 3.0 mi Calm Calm - N/A   Overcast
9:19 AM 46.4 °F - 46.4 °F 100% 29.82 in 2.5 mi Calm Calm - N/A Rain Light Rain
9:34 AM 46.4 °F - 46.4 °F 100% 29.83 in 1.8 mi Calm Calm - N/A Rain Light Rain
9:53 AM 46.9 °F - 46.0 °F 97% 29.87 in 2.5 mi Calm Calm - N/A Rain Light Rain
10:04 AM 48.2 °F - 46.4 °F 93% 29.80 in 4.0 mi North 5.8 mph - N/A Rain Light Rain
10:13 AM 46.4 °F 44.3 °F 46.4 °F 100% 29.83 in 4.0 mi WNW 4.6 mph - N/A Rain Light Rain
10:49 AM 48.2 °F - 46.4 °F 93% 29.83 in 4.0 mi WNW 4.6 mph - N/A Rain Light Rain
10:53 AM 48.0 °F - 46.9 °F 96% 29.88 in 4.0 mi West 5.8 mph - N/A   Overcast
11:20 AM 48.2 °F - 46.4 °F 93% 29.85 in 7.0 mi WSW 6.9 mph - N/A Rain Light Rain
11:53 AM 48.9 °F - 46.9 °F 93% 29.89 in 10.0 mi West 8.1 mph - N/A   Overcast
12:11 PM 48.2 °F - 46.4 °F 93% 29.84 in 10.0 mi West 5.8 mph - N/A   Overcast
12:53 PM 52.0 °F - 48.0 °F 86% 29.88 in 10.0 mi WNW 6.9 mph - N/A   Mostly Cloudy
1:27 PM 53.6 °F - 46.4 °F 77% 29.84 in 10.0 mi West 9.2 mph - N/A   Mostly Cloudy
1:42 PM 53.6 °F - 46.4 °F 77% 29.84 in 10.0 mi NW 8.1 mph - N/A   Scattered Clouds
1:53 PM 54.0 °F - 46.0 °F 75% 29.87 in 10.0 mi Variable 6.9 mph - N/A   Partly Cloudy
2:53 PM 57.0 °F - 45.0 °F 64% 29.89 in 10.0 mi NW 9.2 mph - N/A   Mostly Cloudy
3:08 PM 55.4 °F - 44.6 °F 67% 29.86 in 10.0 mi West 8.1 mph - N/A   Scattered Clouds
3:53 PM 57.0 °F - 44.1 °F 62% 29.90 in 10.0 mi West 3.5 mph - N/A   Partly Cloudy
4:53 PM 55.9 °F - 43.0 °F 62% 29.92 in 10.0 mi SW 4.6 mph - N/A   Clear
5:53 PM 52.0 °F - 42.1 °F 69% 29.94 in 10.0 mi Calm Calm - N/A   Clear
6:53 PM 50.0 °F - 42.1 °F 74% 29.96 in 10.0 mi Calm Calm - N/A   Clear
7:53 PM 46.9 °F - 43.0 °F 86% 29.99 in 10.0 mi Calm Calm - N/A   Clear
8:53 PM 46.9 °F - 43.0 °F 86% 30.00 in 10.0 mi SW 4.6 mph - N/A   Clear
9:53 PM 43.0 °F - 41.0 °F 93% 30.00 in 10.0 mi Calm Calm - N/A   Clear
10:53 PM 41.0 °F - 39.0 °F 93% 30.00 in 1.2 mi Calm Calm - N/A   Clear
11:02 PM 39.2 °F - 39.2 °F 100% 29.95 in 0.8 mi Calm Calm - N/A   Clear
11:08 PM 42.8 °F 40.1 °F 39.2 °F 87% 29.95 in 2.0 mi SW 4.6 mph - N/A   Clear
11:16 PM 44.6 °F 42.2 °F 42.8 °F 93% 29.95 in 10.0 mi SW 4.6 mph - N/A   Clear
11:53 PM 43.0 °F 41.3 °F 42.1 °F 97% 29.99 in 10.0 mi SSW 3.5 mph - N/A   Clear